TIANLIAN 1-01

Last updated on Aug. 9, 2020, 5:34 a.m. UTC

1 32779U 08019A   20221.71577117 -.00000146  00000-0  00000-0 0  9991
2 32779   4.2337  72.3553 0028830 261.0843 321.9396  1.00272364 44971
UTC
Height (km)
Latitude
Longitude
Inclination
Orbital Period
UTC large
Height (km)
Speed (km/s)
/
Latitude / Longitude
Inclination (degrees)
Orbital Period (minutes)
Azimuth
Elevation
Range (km)
Doppler Factor
iOS Compass Heading
iOS Angle

Next 30 passes for location: Hong Kong

Rise time Rise Azimuth (degrees) Set time Set Azimuth (degrees) Duration Max altitude (degrees)

No matching passes for this satellites